AirNav   ATP
 
 317 users online  

OR74 Winkle Bar Airport
Grants Pass, Oregon, USA

GOING TO GRANTS PASS?


FAA INFORMATION EFFECTIVE 06 DECEMBER 2018

Location

FAA Identifier: OR74
Lat/Long: 42-42-05.4030N / 123-48-18.2910W
42-42.090050N / 123-48.304850W
42.7015008 / -123.8050808
(estimated)
Elevation: 450 ft. / 137 m (estimated)
Variation: 18E (1985)
From city: 26 miles NW of GRANTS PASS, OR
Time zone: UTC -8 (UTC -7 during Daylight Saving Time)
Zip code: 97406

Airport Operations

Airport use: Private use. Permission required prior to landing
Activation date: 02/1970
Control tower: no
ARTCC: SEATTLE CENTER
FSS: MC MINNVILLE FLIGHT SERVICE STATION
Attendance: UNATNDD
Wind indicator: no
Segmented circle: no

Nearby radio navigation aids

VOR radial/distance  VOR name  Freq  Var
RBGr195/35.0ROSEBURG VOR/DME108.2020E

 
NDB name  Hdg/Dist  Freq  Var  ID
ROSEBURG192/37.640020ERBG .-. -... --.

Airport Services

Airframe service: NONE
Powerplant service: NONE

Runway Information

Runway NE/SW

Dimensions: 900 x 30 ft. / 274 x 9 m
Surface: turf
RUNWAY NE  RUNWAY SW
Traffic pattern: leftright

Airport Ownership and Management from official FAA records

Ownership: Privately-owned
Owner: WALTER A HAAS JR
Manager: PACIFIC FLIGHTS INC
3650 BIDDLE RD
MEDFORD, OR 97504

Additional Remarks

LOW APCH AROUND BENDS IN RIVER.
PVT ARPT UNSAFE FOR GENERAL USE DUE TO TYPE OF TERRAIN & AIR CURRENTS.
CAUTION--ARPT HAZARDOUS

Instrument Procedures

There are no published instrument procedures at OR74.

Some nearby airports with instrument procedures:

3S8 - Grants Pass Airport (22 nm SE)
KRBG - Roseburg Regional Airport (38 nm NE)
KMFR - Rogue Valley International - Medford Airport (46 nm SE)
KOTH - Southwest Oregon Regional Airport (47 nm NW)
KCEC - Jack Mc Namara Field Airport (59 nm S)
 
Loc | Ops | Rwys | IFR | FBO | Links
Com | Nav | Svcs | Stats | Notes


 
Area around OR74 (Winkle Bar Airport)
 
Road maps at: MapQuest Bing Google
 
Aerial photo
WARNING: Photo may not be current or correct
Aerial photo of OR74 (Winkle Bar Airport)
Do you have a better or more recent aerial photo of Winkle Bar Airport that you would like to share? If so, please send us your photo.

 
Sectional chart

 
Airport distance calculator
Flying to Winkle Bar Airport? Find the distance to fly.

From to OR74

Sunrise and sunset
Times for 16-Dec-2018
 Local
(UTC-8)
 Zulu
(UTC)
Morning civil twilight07:0815:08
Sunrise07:4015:40
Sunset16:4100:41
Evening civil twilight17:1401:14

Current date and time
Zulu (UTC)  16-Dec-2018 09:15:23
Local (UTC-8)  16-Dec-2018 01:15:23
 
METAR
KSXT 
20nm E 
151356Z AUTO 13010KT 5SM BR BKN100 M01/M01 A2997 RMK AO2 SLP174 T10061006
K3S8 
22nm SE 
160855Z AUTO 00000KT 5SM BR OVC070 05/04 A2984 RMK AO2
K4S1 
32nm SW 
160855Z AUTO 18022G34KT 7SM OVC014 13/12 A2973 RMK AO1 P0003
3S4 
36nm S 
SuperAWOS
160755Z AUTO 00000KT 10SM 05/05 A2983
KRBG 
38nm NE 
160853Z AUTO 00000KT 7SM OVC070 07/06 A2979 RMK AO2 SLP089 60000 T00670061 58013
TAF
KRBG 
38nm NE 
160552Z 1606/1706 16004KT P6SM OVC050 FM161200 16004KT 3SM -RA BR OVC050 WS020/18040KT FM162100 24004KT 2SM -RA BR OVC015 FM170000 23003KT 6SM -RA BR SCT015 OVC025
KMFR 
46nm SE 
160552Z 1606/1706 VRB03KT P6SM SCT070 OVC150 FM160900 15010KT 2SM -RA BKN040 OVC070 FM161900 15015G23KT P6SM -RA OVC019 FM162300 17012KT 4SM -RA SCT015 OVC040 FM170200 20009KT 2SM -RA SCT015 OVC050
NOTAMs
Click for the latest NOTAMs
NOTAMs are issued by the DoD/FAA and will open in a separate window not controlled by AirNav.

 

 
 

Would you like to see your business listed on this page?

 If your business provides an interesting product or service to pilots, flight crews, aircraft, or users of the Winkle Bar Airport, you should consider listing it here.  To start the listing process, click on the button below
 
Add a business
 

Other Pages about Winkle Bar Airport

Update a link
 
Copyright © AirNav, LLC. All rights reserved. Privacy Policy  Contact